Osceola, IA

6:36 AM CST on December 03, 2016 (GMT -0600)
Osceola Municipal

Weather History for KI75 - April, 2014

Change the Weather History Date:

Wednesday, April 23, 2014

  Actual Average (KLWD) Record (KLWD)
Temperature  
Mean Temperature 50 °F 54 °F  
Max Temperature 54 °F 64 °F 84 °F (1990)
Min Temperature 46 °F 44 °F 27 °F (1967)
Degree Days  
Heating Degree Days 15 11  
Month to date heating degree days 335  
Since 1 July heating degree days 5824  
Cooling Degree Days 0 0  
Month to date cooling degree days 0  
Year to date cooling degree days 1  
Moisture  
Dew Point 37 °F    
Average Humidity 61    
Maximum Humidity 79    
Minimum Humidity 49    
Precipitation  
Precipitation 0.01 in 0.13 in 0.80 in (1948)
Month to date precipitation 2.57  
Sea Level Pressure  
Sea Level Pressure 29.95 in    
Wind  
Wind Speed 10 mph (ESE)    
Max Wind Speed 21 mph    
Max Gust Speed 30 mph    
Visibility 10 miles    
Events Rain    
T = Trace of Precipitation, MM = Missing Value Source: NWS Daily Summary

Daily Weather History Graph

Daily Weather History Graph

Search for Another Location

Airport or City:

Trip Planner

Search our weather history database for the weather conditions in past years. The results will help you decide how hot, cold, wet, or windy it might be!

Date:

Astronomy

Apr. 23, 2014 Rise Set
Actual Time 6:23 AM CDT 8:03 PM CDT
Civil Twilight 5:54 AM CDT 8:32 PM CDT
Nautical Twilight 5:19 AM CDT 9:07 PM CDT
Astronomical Twilight 4:41 AM CDT 9:45 PM CDT
Moon 2:58 AM CDT (4/23) 2:09 PM CDT (4/23)
Length of Visible Light 14h 37m
Length of Day
13h 39m
Waning Crescent, 34% of the Moon is Illuminated
Apr 23
Waning Crescent
Apr 29
New
May 6
First Quarter
May 14
Full
May 21
Last Quarter

Hourly Weather History & Observations

Time (CDT) Temp. Dew Point Humidity Pressure Visibility Wind Dir Wind Speed Gust Speed Precip Events Conditions
12:15 AM 51.4 °F 36.0 °F 56% 30.04 in 10.0 mi East 5.8 mph - N/A   Scattered Clouds
12:35 AM 51.4 °F 36.9 °F 58% 30.05 in 10.0 mi East 3.5 mph - N/A   Overcast
12:55 AM 50.4 °F 36.7 °F 59% 30.04 in 10.0 mi East 5.8 mph - N/A   Mostly Cloudy
1:15 AM 50.7 °F 35.6 °F 56% 30.04 in 10.0 mi East 6.9 mph - N/A   Mostly Cloudy
1:35 AM 51.8 °F 35.6 °F 54% 30.04 in 10.0 mi East 6.9 mph - N/A   Overcast
1:55 AM 50.7 °F 36.0 °F 57% 30.03 in 10.0 mi East 6.9 mph - N/A   Overcast
2:15 AM 50.0 °F 35.6 °F 58% 30.03 in 10.0 mi East 8.1 mph - N/A   Mostly Cloudy
2:35 AM 49.1 °F 35.6 °F 60% 30.02 in 10.0 mi East 6.9 mph - N/A   Mostly Cloudy
2:55 AM 49.1 °F 34.9 °F 58% 30.02 in 10.0 mi East 9.2 mph - N/A   Scattered Clouds
3:15 AM 48.9 °F 34.9 °F 58% 30.03 in 10.0 mi ESE 5.8 mph - N/A   Scattered Clouds
3:35 AM 47.1 °F 34.9 °F 62% 30.03 in 10.0 mi East 5.8 mph - N/A   Mostly Cloudy
3:55 AM 48.4 °F 34.9 °F 60% 30.03 in 10.0 mi East 8.1 mph - N/A   Mostly Cloudy
4:15 AM 49.1 °F 34.7 °F 58% 30.03 in 10.0 mi East 5.8 mph - N/A   Overcast
4:35 AM 48.6 °F 34.9 °F 59% 30.02 in 10.0 mi East 8.1 mph - N/A   Overcast
4:55 AM 48.2 °F 34.7 °F 60% 30.02 in 10.0 mi East 9.2 mph - N/A   Mostly Cloudy
5:15 AM 47.3 °F 34.0 °F 60% 30.03 in 10.0 mi ESE 5.8 mph - N/A   Scattered Clouds
5:35 AM 46.6 °F 33.1 °F 59% 30.03 in 10.0 mi ESE 8.1 mph - N/A   Clear
5:55 AM 46.9 °F 32.7 °F 58% 30.02 in 10.0 mi ESE 8.1 mph - N/A   Clear
6:15 AM 47.1 °F 33.1 °F 58% 30.03 in 10.0 mi ESE 6.9 mph - N/A   Scattered Clouds
6:35 AM 47.7 °F 33.1 °F 57% 30.03 in 10.0 mi ESE 9.2 mph - N/A   Mostly Cloudy
6:55 AM 48.6 °F 32.4 °F 54% 30.03 in 10.0 mi ESE 11.5 mph - N/A   Overcast
7:15 AM 49.3 °F 32.0 °F 51% 30.04 in 10.0 mi ESE 11.5 mph - N/A   Overcast
7:35 AM 49.8 °F 32.0 °F 50% 30.05 in 10.0 mi ESE 12.7 mph - N/A   Scattered Clouds
7:55 AM 49.5 °F 32.0 °F 51% 30.04 in 10.0 mi East 16.1 mph 20.7 mph N/A   Mostly Cloudy
8:15 AM 49.6 °F 32.4 °F 51% 30.06 in 10.0 mi SE 11.5 mph - N/A   Overcast
8:35 AM 50.4 °F 32.4 °F 50% 30.06 in 10.0 mi ESE 13.8 mph - N/A   Overcast
8:55 AM 50.9 °F 32.4 °F 49% 30.05 in 10.0 mi SE 12.7 mph 19.6 mph N/A   Overcast
9:15 AM 50.9 °F 32.5 °F 49% 30.05 in 10.0 mi SE 16.1 mph - N/A   Overcast
9:35 AM 50.9 °F 32.9 °F 50% 30.04 in 10.0 mi ESE 13.8 mph 25.3 mph N/A   Overcast
9:55 AM 50.9 °F 33.3 °F 51% 30.03 in 10.0 mi SE 16.1 mph 20.7 mph N/A   Overcast
10:15 AM 51.1 °F 34.0 °F 52% 30.04 in 10.0 mi SE 13.8 mph 20.7 mph N/A   Overcast
10:35 AM 50.9 °F 34.9 °F 54% 30.05 in 10.0 mi SE 11.5 mph 19.6 mph N/A   Overcast
10:55 AM 50.9 °F 35.1 °F 55% 30.04 in 10.0 mi SE 11.5 mph - N/A   Light Drizzle
11:15 AM 49.6 °F 37.8 °F 64% 30.02 in 10.0 mi ESE 13.8 mph - N/A Rain Light Rain
11:35 AM 49.5 °F 39.0 °F 67% 30.00 in 10.0 mi ESE 15.0 mph - N/A Rain Light Rain
11:55 AM 49.6 °F 39.2 °F 67% 29.99 in 10.0 mi ESE 11.5 mph 20.7 mph N/A   Overcast
12:15 PM 50.2 °F 39.0 °F 66% 30.00 in 10.0 mi SE 10.4 mph - N/A Rain Rain
12:35 PM 49.1 °F 40.6 °F 73% 30.00 in 10.0 mi ESE 9.2 mph - N/A Rain Light Rain
1:15 PM 48.4 °F 42.3 °F 79% 29.97 in 10.0 mi ESE 11.5 mph - 0.01 in Rain Light Rain
1:35 PM 48.7 °F 42.1 °F 78% 29.97 in 10.0 mi ESE 13.8 mph 19.6 mph 0.01 in Rain Light Rain
1:55 PM 48.6 °F 41.9 °F 78% 29.96 in 10.0 mi ESE 15.0 mph - 0.01 in Rain Light Rain
2:15 PM 48.4 °F 41.5 °F 77% 29.92 in 10.0 mi East 17.3 mph 20.7 mph N/A   Overcast
2:35 PM 48.9 °F 41.4 °F 75% 29.95 in 10.0 mi ESE 13.8 mph 20.7 mph N/A   Overcast
2:55 PM 49.1 °F 41.7 °F 76% 29.92 in 10.0 mi ESE 17.3 mph 25.3 mph N/A   Overcast
3:15 PM 50.0 °F 41.7 °F 73% 29.90 in 10.0 mi ESE 20.7 mph 26.5 mph N/A   Overcast
3:35 PM 50.4 °F 41.5 °F 72% 29.92 in 10.0 mi ESE 16.1 mph 26.5 mph N/A   Overcast
3:55 PM 50.0 °F 42.4 °F 75% 29.89 in 10.0 mi ESE 18.4 mph 25.3 mph N/A   Overcast
4:15 PM 51.1 °F 42.6 °F 73% 29.87 in 10.0 mi ESE 19.6 mph 25.3 mph N/A   Mostly Cloudy
4:35 PM 51.3 °F 41.9 °F 70% 29.86 in 10.0 mi ESE 20.7 mph 29.9 mph N/A   Scattered Clouds
4:55 PM 50.9 °F 42.1 °F 72% 29.84 in 10.0 mi East 19.6 mph 26.5 mph N/A   Mostly Cloudy
5:15 PM 50.9 °F 41.9 °F 71% 29.86 in 10.0 mi East 13.8 mph 19.6 mph N/A   Overcast
5:35 PM 51.1 °F 42.3 °F 72% 29.84 in 10.0 mi East 16.1 mph - N/A   Overcast
5:55 PM 51.8 °F 42.1 °F 69% 29.84 in 10.0 mi East 12.7 mph - N/A   Mostly Cloudy
6:15 PM 52.2 °F 41.7 °F 68% 29.83 in 10.0 mi ESE 13.8 mph 23.0 mph N/A   Scattered Clouds
6:35 PM 52.3 °F 41.5 °F 67% 29.83 in 10.0 mi ESE 16.1 mph - N/A   Mostly Cloudy
6:55 PM 52.7 °F 41.2 °F 65% 29.83 in 10.0 mi ESE 13.8 mph 24.2 mph N/A   Overcast
7:15 PM 52.7 °F 40.8 °F 64% 29.82 in 10.0 mi East 12.7 mph - N/A   Overcast
7:35 PM 52.9 °F 40.5 °F 63% 29.80 in 10.0 mi ESE 16.1 mph 20.7 mph N/A   Overcast
7:55 PM 53.6 °F 39.9 °F 60% 29.81 in 10.0 mi ESE 13.8 mph - N/A   Overcast
8:15 PM 53.6 °F 39.2 °F 58% 29.80 in 10.0 mi East 15.0 mph - N/A   Mostly Cloudy
8:35 PM 53.6 °F 39.2 °F 58% 29.78 in 10.0 mi ESE 15.0 mph - N/A   Mostly Cloudy
8:55 PM 53.6 °F 39.0 °F 58% 29.77 in 10.0 mi ESE 16.1 mph - N/A   Scattered Clouds
9:15 PM 53.6 °F 39.0 °F 58% 29.76 in 10.0 mi ESE 17.3 mph 24.2 mph N/A   Clear
9:55 PM 54.3 °F 38.5 °F 55% 29.76 in 10.0 mi ESE 19.6 mph 26.5 mph N/A   Clear
10:15 PM 54.5 °F 38.5 °F 55% 29.76 in 10.0 mi ESE 18.4 mph 27.6 mph N/A   Scattered Clouds
10:35 PM 54.5 °F 38.7 °F 55% 29.77 in 10.0 mi SE 18.4 mph 26.5 mph N/A   Scattered Clouds
10:55 PM 54.7 °F 38.3 °F 54% 29.78 in 10.0 mi SE 17.3 mph 26.5 mph N/A   Scattered Clouds
11:15 PM 54.1 °F 38.3 °F 55% 29.79 in 10.0 mi ESE 13.8 mph - N/A   Scattered Clouds
11:35 PM 53.8 °F 38.1 °F 55% 29.79 in 10.0 mi ESE 13.8 mph 20.7 mph N/A   Clear
11:55 PM 53.8 °F 37.8 °F 55% 29.79 in 10.0 mi ESE 12.7 mph 20.7 mph N/A   Mostly Cloudy